Location: Limerick
(52.6650°N, 8.6230°W)
Time: 04:47:19
(UTC+00:00)

ISS - Pass Details

Date: 08 December 2019
Orbit: 411 x 421 km, 51.6° (Epoch: 15 December)

Event Time Altitude Azimuth Distance (km) Brightness Sun altitude
Rises 17:20:33 0° 280° (W) 2,357 1.0 -8.6°
Reaches altitude 10° 17:22:41 10° 274° (W) 1,495 0.1 -8.9°
Maximum altitude 17:25:55 47° 199° (SSW) 563 -2.8 -9.3°
Drops below altitude 10° 17:29:09 10° 125° (SE) 1,496 -1.2 -9.7°
Enters shadow 17:30:48 - 120° (ESE) 2,156 -0.5 -10.0°
